Location: Caseificio
(44.7500°N, 11.0500°E)
Time: 22:06:37
(UTC+00:00)

Lacrosse 5 - Pass Details

Date: 26 May 2022
Orbit: 714 x 724 km, 57.0° (Epoch: 09 March)

Event Time Altitude Azimuth Distance (km) Brightness Sun altitude
Exits shadow 02:37:42 - 264° (W) 2,560 4.2 -9.3°
Reaches altitude 10° 02:38:41 10° 268° (W) 2,213 3.9 -9.2°
Maximum altitude 02:43:21 35° 334° (NNW) 1,170 3.1 -8.5°
Drops below altitude 10° 02:48:00 10° 40° (NE) 2,216 6.0 -7.9°
Sets 02:50:36 0° 49° (NE) 3,137 7.9 -7.6°
